Location: F?ge?el
(45.8833°N, 22.5833°E)
Time: 05:20:38
(UTC+00:00)

CZ-2D R/B - Pass Details

Date: 17 November 2025
Orbit: 526 x 597 km, 98.0° (Epoch: 04 December)

Event Time Altitude Azimuth Distance (km) Brightness Sun altitude
Rises 16:08:44 0° 147° (SSE) 2,783 6.7 -12.6°
Reaches altitude 10° 16:10:56 10° 140° (SE) 1,899 5.8 -13.0°
Maximum altitude 16:14:49 41° 70° (ENE) 866 3.8 -13.6°
Drops below altitude 10° 16:18:46 10° 0° (N) 1,941 6.0 -14.3°
Sets 16:21:03 0° 354° (N) 2,853 6.9 -14.7°
